TimeCST,TemperatureF,Dew PointF,Humidity,Sea Level PressureIn,VisibilityMPH,Wind Direction,Wind SpeedMPH,Gust SpeedMPH,PrecipitationIn,Events,Conditions,WindDirDegrees,DateUTC
12:00 AM,66.2,62.6,88,30.30,6.2,North,5.8,-,N/A,,Mostly Cloudy,10,2013-10-13 06:00:00
1:00 AM,64.4,62.6,94,30.27,6.2,North,9.2,-,N/A,,Scattered Clouds,360,2013-10-13 07:00:00
2:00 AM,64.4,62.6,94,30.24,6.2,North,11.5,-,N/A,,Scattered Clouds,360,2013-10-13 08:00:00
3:00 AM,64.4,60.8,88,30.24,6.2,NNE,13.8,-,N/A,,Mostly Cloudy,20,2013-10-13 09:00:00
4:00 AM,64.4,60.8,88,30.24,6.2,North,9.2,-,N/A,,Mostly Cloudy,10,2013-10-13 10:00:00
5:00 AM,64.4,60.8,88,30.24,6.2,North,11.5,-,N/A,,Mostly Cloudy,360,2013-10-13 11:00:00
6:00 AM,63,61,89,29.95,25,North,16.1,,,,Overcast,0,2013-10-13 12:00:00
6:00 AM,62.6,60.8,94,30.27,6.2,North,16.1,-,N/A,,Scattered Clouds,360,2013-10-13 12:00:00
7:00 AM,64.4,60.8,88,30.27,6.2,North,9.2,-,N/A,,Scattered Clouds,360,2013-10-13 13:00:00
8:00 AM,64.4,60.8,88,30.30,6.2,North,11.5,-,N/A,,Mostly Cloudy,360,2013-10-13 14:00:00
9:00 AM,68.0,60.8,78,30.30,6.2,North,11.5,-,N/A,,Mostly Cloudy,360,2013-10-13 15:00:00
10:00 AM,69.8,59.0,68,30.33,6.2,North,13.8,-,N/A,,Mostly Cloudy,360,2013-10-13 16:00:00
11:00 AM,71.6,59.0,64,30.30,6.2,North,13.8,-,N/A,,Mostly Cloudy,360,2013-10-13 17:00:00
12:00 PM,72,60,57,29.93,25,North,16.1,,,,Mostly Cloudy,0,2013-10-13 18:00:00
12:00 PM,71.6,60.8,69,30.27,6.2,North,16.1,-,N/A,,Mostly Cloudy,360,2013-10-13 18:00:00
1:00 PM,75.2,60.8,61,30.24,6.2,North,18.4,-,N/A,,Mostly Cloudy,360,2013-10-13 19:00:00
2:00 PM,75.2,59.0,57,30.21,6.2,North,13.8,-,N/A,,Scattered Clouds,360,2013-10-13 20:00:00
3:00 PM,77.0,59.0,54,30.21,6.2,North,11.5,-,N/A,,Scattered Clouds,360,2013-10-13 21:00:00
4:00 PM,75.2,59.0,57,30.18,6.2,North,13.8,-,N/A,,Partly Cloudy,360,2013-10-13 22:00:00
5:00 PM,73.4,60.8,65,30.18,6.2,North,11.5,-,N/A,,Scattered Clouds,360,2013-10-13 23:00:00
6:00 PM,69,63,74,29.91,25,NNW,6.9,,,,Mostly Cloudy,340,2013-10-14 00:00:00
6:00 PM,69.8,62.6,78,30.24,6.2,NNW,6.9,-,N/A,,Partly Cloudy,340,2013-10-14 00:00:00
7:00 PM,66.2,62.6,88,30.24,6.2,North,9.2,-,N/A,,Light Drizzle,360,2013-10-14 01:00:00
7:40 PM,-9999,-9999,N/A,-9999,6.2,North,6.9,-,N/A,,Mostly Cloudy,360,2013-10-14 01:40:00
8:00 PM,66.2,62.6,88,30.27,6.2,North,11.5,-,N/A,,Mostly Cloudy,360,2013-10-14 02:00:00
9:00 PM,64.4,60.8,88,30.30,6.2,NNE,13.8,-,N/A,,Mostly Cloudy,20,2013-10-14 03:00:00
10:00 PM,64.4,60.8,88,30.30,6.2,North,9.2,-,N/A,,Mostly Cloudy,360,2013-10-14 04:00:00
10:35 PM,-9999,-9999,N/A,-9999,5.0,North,9.2,-,N/A,,Light Drizzle,360,2013-10-14 04:35:00
11:00 PM,62.6,60.8,94,30.30,6.2,NNE,13.8,-,N/A,,Mostly Cloudy,30,2013-10-14 05:00:00